This is the latest recevied weather packets stored in our database for station/object N8HON. If no packets are shown the sender has not sent any weather packets the latest 10 day(s).
| Time | Temp. | Humidity | Pressure | Rain* | Wind** | Luminosity | Snow |
|---|---|---|---|---|---|---|---|
| 1777530505 | 11.67° C | 81% | 1007.5 hPa | 0 mm | - | 0 W/m² | - |
| 1777530200 | 11.67° C | 82% | 1007.4 hPa | 0 mm | - | 0 W/m² | - |
| 1777529898 | 11.67° C | 81% | 1007.4 hPa | 0 mm | - | 0 W/m² | - |
| 1777529594 | 11.67° C | 85% | 1007.7 hPa | 0 mm | - | 0 W/m² | - |
| 1777529292 | 11.11° C | 82% | 1007.6 hPa | 0 mm | - | 0 W/m² | - |
| 1777528988 | 11.67° C | 86% | 1007.4 hPa | 0 mm | - | 0 W/m² | - |
| 1777528682 | 11.67° C | 84% | 1007.3 hPa | 0 mm | - | 0 W/m² | - |
| 1777528381 | 11.67° C | 83% | 1007.3 hPa | 0 mm | - | 0 W/m² | - |
| 1777528079 | 11.67° C | 80% | 1007.3 hPa | 0 mm | - | 0 W/m² | - |
| 1777527776 | 11.67° C | 86% | 1007.2 hPa | 0 mm | - | 0 W/m² | - |
| 1777527471 | 11.67° C | 86% | 1007.3 hPa | 0 mm | - | 0 W/m² | - |
| 1777527165 | 11.67° C | 81% | 1007.5 hPa | 0 mm | - | 0 W/m² | - |
| 1777526857 | 11.67° C | 83% | 1007.7 hPa | 0 mm | - | 0 W/m² | - |
| 1777526557 | 11.67° C | 87% | 1007.7 hPa | 0 mm | - | 0 W/m² | - |
| 1777526252 | 11.67° C | 86% | 1007.7 hPa | 0 mm | - | 0 W/m² | - |
| 1777525948 | 11.67° C | 86% | 1007.9 hPa | 0 mm | - | 0 W/m² | - |
| 1777525646 | 12.22° C | 82% | 1007.8 hPa | 0 mm | - | 0 W/m² | - |
| 1777525343 | 11.67° C | 85% | 1008 hPa | 0 mm | - | 0 W/m² | - |
| 1777525038 | 11.67° C | 88% | 1007.9 hPa | 0 mm | - | 0 W/m² | - |
| 1777524735 | 11.67° C | 86% | 1007.9 hPa | 0 mm | - | 0 W/m² | - |
| 1777524434 | 11.67° C | 85% | 1007.9 hPa | 0 mm | - | 0 W/m² | - |
| 1777524129 | 11.67° C | 86% | 1008 hPa | 0 mm | - | 0 W/m² | - |
| 1777523826 | 11.67° C | 87% | 1007.9 hPa | 0 mm | - | 0 W/m² | - |
| 1777523523 | 11.67° C | 85% | 1008.1 hPa | 0 mm | - | 0 W/m² | - |
| 1777523219 | 11.67° C | 86% | 1007.8 hPa | 0 mm | - | 0 W/m² | - |
* Rain latest hour (hover to see other rain measurements)
** Current wind speed in m/s (hover to see current wind gust speed)